Pensacola, FL

4:31 PM CST on January 18, 2018 (GMT -0600)
Pensacola Regional

Weather History for KPNS - September, 2013

Change the Weather History Date:

Wednesday, September 18, 2013

  Actual Average Record
Temperature  
Mean Temperature 82 °F 78 °F  
Max Temperature 88 °F 86 °F 96 °F (2005)
Min Temperature 75 °F 70 °F 53 °F (1981)
Cooling Degree Days 17 13  
Month to date cooling degree days 319 266  
Year to date cooling degree days 2301 2233  
Growing Degree Days 31 (Base 50)    
Moisture  
Dew Point 72 °F    
Average Humidity 74    
Maximum Humidity 88    
Minimum Humidity 59    
Precipitation  
Precipitation 0.23 in 0.19 in 3.97 in (1914)
Month to date precipitation 1.80 3.60  
Year to date precipitation 58.25 48.37  
Sea Level Pressure  
Sea Level Pressure 30.06 in    
Wind  
Wind Speed 5 mph (East)    
Max Wind Speed 14 mph    
Max Gust Speed 20 mph    
Visibility 10 miles    
Events Rain    
T = Trace of Precipitation, MM = Missing Value Source: NWS Daily Summary

Daily Weather History Graph

Daily Weather History Graph

Search for Another Location

Airport or City:

Trip Planner

Search our weather history database for the weather conditions in past years. The results will help you decide how hot, cold, wet, or windy it might be!

Date:

Astronomy

Sep. 18, 2013 Rise Set
Actual Time 6:34 AM CDT 6:50 PM CDT
Civil Twilight 6:10 AM CDT 7:14 PM CDT
Nautical Twilight 5:42 AM CDT 7:42 PM CDT
Astronomical Twilight 5:14 AM CDT 8:10 PM CDT
Moon 6:14 PM CDT 5:38 AM CDT
Length of Visible Light 13h 03m
Length of Day
12h 15m
Waxing Gibbous, 99% of the Moon is Illuminated
Sep 18
Waxing Gibbous
Sep 19
Full
Sep 26
Last Quarter
Oct 4
New
Oct 11
First Quarter

Hourly Weather History & Observations

Time (CDT) Temp. Heat Index Dew Point Humidity Pressure Visibility Wind Dir Wind Speed Gust Speed Precip Events Conditions
12:53 AM 75.9 °F - 71.1 °F 85% 30.06 in 10.0 mi NE 8.1 mph - N/A   Overcast
1:53 AM 77.0 °F - 72.0 °F 84% 30.06 in 10.0 mi Variable 4.6 mph - N/A   Overcast
2:53 AM 77.0 °F - 72.0 °F 84% 30.05 in 10.0 mi East 6.9 mph - N/A   Mostly Cloudy
3:53 AM 75.9 °F - 71.1 °F 85% 30.04 in 10.0 mi ENE 8.1 mph - N/A   Partly Cloudy
4:53 AM 75.9 °F - 71.1 °F 85% 30.04 in 10.0 mi ENE 8.1 mph - N/A   Partly Cloudy
5:07 AM 75.2 °F - 71.6 °F 89% 30.05 in 10.0 mi ENE 4.6 mph - N/A   Mostly Cloudy
5:53 AM 75.0 °F - 70.0 °F 84% 30.06 in 10.0 mi East 9.2 mph - N/A   Mostly Cloudy
6:48 AM 75.2 °F - 69.8 °F 83% 30.06 in 10.0 mi East 10.4 mph 18.4 mph N/A   Mostly Cloudy
6:53 AM 75.0 °F - 70.0 °F 84% 30.07 in 10.0 mi East 6.9 mph 18.4 mph N/A   Scattered Clouds
7:53 AM 75.9 °F - 70.0 °F 82% 30.08 in 10.0 mi East 9.2 mph 18.4 mph N/A   Scattered Clouds
8:53 AM 78.1 °F - 71.1 °F 79% 30.09 in 10.0 mi East 10.4 mph 17.3 mph N/A   Clear
9:48 AM 80.6 °F 84.6 °F 71.6 °F 74% 30.09 in 10.0 mi East 9.2 mph - N/A   Mostly Cloudy
9:53 AM 80.1 °F 83.6 °F 71.1 °F 74% 30.09 in 10.0 mi East 11.5 mph 17.3 mph N/A   Mostly Cloudy
10:53 AM 80.1 °F 83.6 °F 71.1 °F 74% 30.09 in 10.0 mi East 9.2 mph - N/A   Mostly Cloudy
11:00 AM 80.6 °F 84.6 °F 71.6 °F 74% 30.09 in 10.0 mi East 8.1 mph - N/A   Mostly Cloudy
11:53 AM 82.9 °F 88.0 °F 72.0 °F 69% 30.08 in 10.0 mi Calm Calm - N/A   Mostly Cloudy
12:53 PM 84.9 °F 90.7 °F 72.0 °F 65% 30.07 in 10.0 mi NE 5.8 mph - N/A   Mostly Cloudy
1:53 PM 87.1 °F 93.6 °F 72.0 °F 61% 30.05 in 10.0 mi Variable 4.6 mph - N/A   Mostly Cloudy
2:53 PM 84.9 °F 90.1 °F 71.1 °F 63% 30.04 in 10.0 mi Variable 4.6 mph - N/A   Mostly Cloudy
3:42 PM 78.8 °F - 71.6 °F 78% 30.03 in 1.8 mi East 10.4 mph 19.6 mph 0.03 in Rain Heavy Rain
3:53 PM 78.1 °F - 72.0 °F 81% 30.03 in 6.0 mi Calm Calm - 0.23 in Rain Rain
4:53 PM 81.0 °F 86.2 °F 73.9 °F 79% 30.03 in 10.0 mi ESE 3.5 mph - 0.00 in   Mostly Cloudy
5:53 PM 81.0 °F 85.8 °F 73.0 °F 77% 30.03 in 10.0 mi Calm Calm - N/A   Partly Cloudy
6:53 PM 80.1 °F 84.5 °F 73.9 °F 81% 30.03 in 10.0 mi Calm Calm - 0.00 in   Mostly Cloudy
7:53 PM 79.0 °F - 73.9 °F 84% 30.03 in 10.0 mi Calm Calm - N/A   Mostly Cloudy
8:53 PM 77.0 °F - 73.0 °F 88% 30.06 in 10.0 mi Calm Calm - N/A   Clear
9:53 PM 78.1 °F - 73.0 °F 84% 30.06 in 10.0 mi East 4.6 mph - N/A   Clear
10:53 PM 78.1 °F - 72.0 °F 81% 30.05 in 10.0 mi ENE 4.6 mph - N/A   Clear
11:53 PM 78.1 °F - 72.0 °F 81% 30.05 in 10.0 mi ENE 6.9 mph - N/A   Clear